Wind_Speed
14 15 16 19 19 18 19 19 21 24 23 16 18 20 20 21 21 21 21 20 26 24 22 21 22 21 19 20 19 18 19 19 18 18 19 21 21 23 26 25 22 22 22 24 30 34 30 23 18 17 14 8 6 7 9 9 8 7 10 15 16 15 14 13 15 15 15 14 13 12 9 8 7 7 7 7 8 7 7 8 8 7 6 6 6 5
15 18 19 19 17 17 18 17 20 23 21 19 21 22 17 20 21 19 20 19 21 19 18 19 21 20 19 19 20 21 22 21 22 21 20 21 22 23 23 23 22 22 24 29 32 29 21 14 12 15 13 6 4 5 8 9 10 11 11 14 16 17 14 14 17 16 14 14 12 11 10 8 7 7 7 7 7 7 7 8 8 8 7 6 5 5
16 21 19 17 16 16 16 15 18 20 18 18 18 19 15 15 19 18 18 17 16 16 15 16 18 20 21 20 20 22 21 21 22 22 21 21 23 23 22 21 20 22 27 32 29 17 10 9 11 13 10 3 3 5 8 11 12 12 12 13 15 17 15 16 17 13 12 12 10 10 10 8 7 6 6 6 6 6 7 7 8 8 8 8 7 8
17 20 19 17 18 17 15 13 12 13 15 16 15 15 14 12 16 15 12 13 11 11 13 14 15 19 19 18 20 24 22 20 20 20 20 21 25 25 21 19 20 26 29 29 24 11 6 9 9 9 6 2 3 4 6 9 11 13 13 14 14 16 16 17 15 12 12 11 8 8 9 7 6 6 5 5 5 5 6 6 7 8 8 9 9 9
17 15 14 16 18 17 15 14 12 11 13 17 18 18 16 13 15 13 10 12 9 8 11 12 16 21 21 19 23 25 20 19 18 17 18 20 24 23 20 21 26 31 29 24 17 7 5 8 6 5 3 2 3 6 6 9 13 14 15 17 16 16 18 17 16 15 14 13 9 9 7 6 6 5 3 3 4 4 5 6 7 8 8 9 9 9
19 13 11 14 16 14 14 15 16 16 15 17 20 21 21 19 17 14 11 11 10 10 12 14 15 16 19 21 23 22 19 19 18 18 19 21 23 21 23 29 29 26 26 19 9 4 6 5 2 2 2 1 4 9 9 9 13 16 18 19 18 19 18 17 17 17 17 16 12 9 7 6 5 3 2 1 3 4 4 6 7 8 9 10 10 10
18 14 11 13 13 11 13 16 16 18 17 18 18 19 24 25 22 16 11 10 12 12 12 16 15 12 17 23 23 20 19 20 20 19 19 20 20 19 24 31 28 21 19 12 6 8 8 2 1 2 2 4 8 11 10 9 11 15 17 17 19 20 19 18 19 18 18 18 13 10 8 6 4 3 1 1 2 3 4 6 7 8 9 11 11 12
16 13 13 14 15 13 15 16 16 17 18 18 16 16 20 23 21 17 15 13 13 12 10 13 16 14 17 21 21 22 21 20 21 20 20 18 19 22 25 27 24 16 10 7 11 12 8 3 3 4 4 6 9 11 9 6 7 11 14 15 16 17 18 20 22 20 18 17 14 11 8 7 5 3 2 0 1 1 3 5 5 7 8 10 11 12
15 15 13 12 15 17 18 17 16 17 19 19 16 14 16 18 19 17 15 13 12 13 13 14 16 13 14 16 18 23 24 22 21 22 21 18 20 26 28 25 18 11 7 10 13 13 10 7 7 8 7 4 5 9 8 5 5 7 11 14 14 14 17 21 23 22 20 18 16 14 11 8 6 4 3 2 1 1 2 3 3 4 6 8 11 11
12 15 15 14 15 16 16 16 16 17 19 19 15 13 12 14 18 17 15 14 10 10 12 14 14 11 12 14 18 21 24 22 20 21 22 19 20 24 21 17 12 8 8 13 14 13 12 11 11 10 7 4 3 8 11 10 9 9 10 12 15 15 16 20 22 22 22 20 18 16 13 10 7 5 4 4 3 2 0 0 1 2 4 7 10 11
11 11 14 15 16 17 15 13 16 18 18 16 13 13 14 14 16 18 17 14 7 7 13 16 15 12 10 11 15 18 21 20 17 19 20 18 21 23 17 14 13 10 9 14 16 13 10 11 12 11 9 6 5 8 12 12 12 13 13 14 16 16 15 17 20 22 21 19 19 19 15 10 8 7 6 6 6 4 3 2 2 2 4 6 9 12
16 12 12 13 16 17 14 12 13 15 16 14 11 12 14 13 13 15 17 14 7 6 13 18 17 16 12 9 13 14 16 16 16 18 20 20 25 25 19 17 17 13 11 13 15 14 12 12 13 12 10 8 8 8 10 12 13 13 14 16 16 16 14 14 18 22 20 19 21 21 17 12 10 9 8 8 7 6 5 5 4 4 6 7 10 13
20 18 14 13 16 18 14 12 13 13 14 16 14 13 12 9 9 10 10 10 8 9 14 17 15 14 11 9 13 15 14 11 14 17 18 20 24 23 21 20 18 15 15 14 14 14 15 15 15 14 13 11 10 8 8 10 13 13 15 18 17 16 15 14 18 22 20 20 22 22 19 14 12 11 9 9 8 7 7 7 7 8 8 9 12 14
18 18 17 15 17 19 17 14 15 15 16 18 16 16 12 6 5 7 6 6 8 11 14 15 10 7 7 7 11 16 15 11 9 10 14 18 19 16 16 19 18 16 17 18 17 17 17 18 17 16 14 13 11 9 9 11 13 14 16 18 18 17 17 17 19 22 21 21 22 22 21 17 14 12 11 10 9 9 9 8 10 11 11 12 13 12
15 14 18 19 17 18 20 20 16 13 16 19 18 16 15 11 6 5 5 5 5 8 11 11 7 4 8 7 8 14 17 17 14 13 16 19 21 18 18 19 18 17 20 21 20 20 22 22 20 17 15 14 12 11 11 12 15 16 17 19 19 19 20 20 21 22 21 20 21 22 22 19 16 14 13 12 11 10 9 10 11 12 13 14 13 9
16 14 16 19 18 18 21 22 19 14 13 17 18 19 17 14 10 6 5 5 4 5 6 6 6 3 8 12 12 14 15 17 17 16 17 19 21 22 20 18 16 18 21 21 20 20 23 22 20 18 16 14 14 14 14 15 17 19 19 21 22 22 21 21 22 21 20 20 21 23 23 21 20 18 16 14 13 11 11 11 13 14 15 14 11 8
15 14 13 17 18 19 19 18 19 17 11 8 14 19 17 15 15 10 5 6 6 5 4 6 5 1 6 10 12 12 12 14 16 17 17 15 17 21 21 18 17 18 19 19 19 19 22 21 19 18 16 13 13 14 16 19 21 21 21 23 24 23 22 23 23 22 21 22 22 24 24 23 23 22 19 17 15 14 13 13 14 15 14 11 8 8
14 12 9 15 18 19 18 15 17 19 13 8 11 14 10 11 16 12 3 1 4 6 7 9 9 7 8 9 11 13 16 16 13 13 14 11 10 14 17 17 16 18 17 16 16 17 18 18 16 16 16 14 13 14 16 20 22 22 23 25 25 24 25 27 26 25 24 25 26 26 25 24 25 24 22 20 19 17 15 14 14 12 11 9 7 8
13 14 10 12 16 17 18 15 17 20 18 14 12 11 8 7 10 11 6 3 3 5 6 9 13 13 10 8 15 19 20 18 15 14 12 11 10 11 12 13 14 15 14 12 11 12 12 14 14 14 15 14 15 15 16 18 20 21 23 25 25 24 26 27 27 28 28 28 30 29 27 25 25 25 25 25 23 21 17 15 12 10 9 8 7 7
10 12 10 10 12 13 17 18 17 17 18 17 14 12 11 9 8 8 7 6 6 6 4 8 11 4 4 1 12 19 18 16 17 16 13 13 16 16 14 13 13 14 13 12 12 10 9 11 13 14 14 14 15 17 18 18 19 21 24 25 25 25 26 26 25 26 27 27 29 29 27 27 27 27 28 28 26 22 19 17 12 9 10 9 7 7
12 12 11 9 11 13 15 17 16 15 16 15 16 15 13 13 11 8 9 12 10 6 3 5 5 4 11 4 10 17 16 14 15 16 14 15 18 18 15 13 13 13 12 13 15 15 12 12 13 13 13 13 15 17 20 21 20 20 23 24 23 23 24 25 25 25 25 25 26 26 27 28 29 30 30 29 27 24 21 16 11 10 11 9 8 7
14 14 13 11 12 13 13 12 12 14 16 16 17 17 16 16 14 8 7 11 12 9 5 3 1 3 5 6 10 13 16 15 15 15 14 15 16 16 15 14 13 12 13 18 20 18 15 14 14 13 12 14 16 18 21 23 22 21 21 22 23 22 23 23 23 25 26 25 25 27 28 28 29 31 32 30 27 24 19 14 12 13 12 9 8 8
12 10 13 15 13 13 14 11 8 10 13 17 18 15 16 19 16 9 4 6 11 10 6 4 2 3 2 4 8 12 15 15 15 14 12 14 15 16 17 18 16 14 16 20 20 17 16 15 14 12 12 14 15 16 18 20 21 20 18 18 18 19 20 20 20 21 23 23 24 25 26 26 29 31 30 26 22 20 17 14 14 14 11 9 9 9
12 9 9 12 12 13 16 15 12 11 12 12 13 13 15 17 17 13 6 3 7 7 4 3 1 3 5 6 8 9 11 13 15 14 12 14 16 15 16 19 17 15 17 19 19 17 16 15 14 12 12 12 11 11 13 15 17 16 15 14 14 15 16 17 17 17 16 16 17 19 20 22 25 25 23 21 21 19 17 15 15 13 12 11 11 10
11 11 8 8 7 7 11 13 13 13 12 10 11 13 13 14 15 14 10 7 7 8 7 3 1 2 4 7 8 9 10 13 18 17 12 14 17 15 14 18 18 16 17 19 18 18 17 16 14 13 12 11 9 8 9 10 12 12 13 13 13 14 16 16 16 15 14 13 13 13 15 18 18 17 19 23 22 18 15 15 15 14 14 14 12 12
7 11 10 10 7 4 5 7 8 10 9 8 12 15 15 17 17 12 8 8 5 6 9 4 4 10 8 7 8 12 12 12 14 16 14 14 15 13 14 17 17 17 18 18 17 17 17 17 15 14 12 10 9 8 8 9 10 11 12 12 12 13 14 15 16 16 14 11 9 9 14 18 18 16 19 21 18 13 12 15 16 17 17 16 15 15
7 9 10 12 12 9 6 5 7 8 4 9 15 15 16 18 17 13 10 9 7 7 12 11 4 13 12 9 5 7 13 15 13 13 16 17 18 17 18 20 19 18 17 16 16 15 15 15 15 15 13 10 9 8 7 8 10 12 13 13 13 14 15 16 16 14 12 11 11 12 15 18 18 16 15 15 13 12 13 15 16 18 18 17 16 16
10 10 11 12 14 15 9 5 9 11 8 5 11 11 13 15 12 9 8 6 6 8 8 7 8 15 13 9 7 5 10 13 12 13 15 17 18 17 18 20 19 18 17 16 16 15 14 14 13 13 13 11 10 9 8 9 11 13 14 14 14 15 15 15 14 12 13 14 14 14 15 15 15 14 10 9 11 13 15 16 16 16 17 16 15 15
12 11 11 10 11 11 7 4 5 8 12 10 3 5 8 11 10 7 8 7 6 7 6 9 14 15 13 12 11 9 9 9 10 12 13 14 15 13 13 15 16 16 16 16 16 16 15 14 13 12 12 11 10 9 10 10 11 13 14 14 13 12 12 12 12 11 11 12 12 12 12 11 10 9 8 8 11 14 17 18 16 14 15 15 14 14
11 10 10 10 9 8 6 4 3 3 8 12 12 7 3 9 8 6 6 4 0 4 10 15 17 14 13 11 10 11 11 10 10 10 10 11 13 13 14 15 16 17 17 17 17 16 16 14 13 13 13 12 12 11 11 11 12 14 14 12 12 12 10 9 9 9 9 9 9 9 8 6 6 6 6 9 12 15 18 19 16 13 13 13 14 15
12 10 10 11 9 8 8 6 3 3 4 7 12 14 7 2 4 5 7 9 11 13 15 18 19 15 12 10 10 11 13 11 12 13 12 12 13 14 15 16 16 15 15 16 15 16 16 14 13 13 14 14 14 14 15 14 13 14 14 13 12 13 11 9 8 8 8 8 8 9 9 7 7 8 8 10 12 12 15 16 14 13 13 13 13 15
10 7 8 10 9 10 9 8 6 5 5 7 9 11 14 11 6 2 5 10 11 8 8 13 16 15 12 12 14 16 15 13 14 15 14 15 16 17 17 19 19 18 17 17 18 18 19 18 18 17 15 12 11 12 13 12 11 13 14 14 13 13 12 11 11 11 11 10 10 11 11 9 10 10 10 10 10 10 11 12 11 11 14 14 14 14
7 5 5 7 9 9 9 10 9 6 5 7 9 11 17 17 10 6 8 11 12 9 7 8 10 11 11 11 13 14 14 15 15 15 17 18 20 22 23 26 27 26 26 25 25 24 25 24 23 23 20 16 13 13 13 12 13 15 16 14 13 14 15 15 15 13 13 12 12 12 12 11 12 12 12 11 11 11 11 11 11 12 15 15 15 15
6 6 6 7 7 8 6 9 9 6 5 3 5 10 15 17 13 9 12 14 14 15 14 11 9 8 6 6 5 5 9 13 15 15 18 21 24 26 29 31 31 30 29 29 28 27 26 25 25 25 25 22 21 20 18 18 18 17 16 13 11 12 14 15 15 14 14 15 15 13 13 14 14 13 12 12 13 13 12 12 12 13 15 15 15 16
6 7 7 6 5 7 4 8 6 3 3 3 4 5 8 13 16 14 13 13 11 10 10 9 9 7 3 1 3 4 3 7 12 14 14 19 24 27 28 31 31 28 26 25 26 27 28 28 27 26 26 25 25 24 23 23 22 20 19 17 14 12 12 12 13 14 15 15 12 11 11 12 12 12 12 12 12 12 14 14 13 13 13 12 13 14
5 7 6 4 3 3 4 6 3 1 5 4 3 2 1 6 11 14 15 14 13 12 8 5 6 6 5 2 2 1 1 2 8 11 9 11 15 18 20 24 27 27 27 26 26 28 29 30 29 29 28 25 23 23 22 23 24 23 23 21 17 11 10 13 14 13 12 11 8 6 7 7 7 7 8 10 11 12 12 13 13 14 13 12 12 12
5 8 8 6 5 6 5 4 4 2 5 5 6 5 2 2 2 8 12 13 16 19 17 17 15 12 10 8 7 8 7 5 6 7 7 8 9 10 11 11 12 15 19 21 22 22 23 24 24 26 27 24 21 19 17 18 20 20 19 21 19 14 12 16 15 12 13 13 10 8 9 9 8 8 9 9 11 15 15 14 14 14 13 12 12 12
4 5 7 6 5 7 5 4 4 3 3 6 8 8 10 9 6 3 4 5 9 13 14 16 17 16 16 14 10 8 8 7 5 4 5 5 5 7 9 9 8 9 11 12 12 12 14 15 16 17 18 18 18 18 16 16 19 19 19 19 18 17 17 18 17 15 17 17 15 14 14 14 13 14 14 12 12 16 18 18 16 15 14 13 12 12
5 4 5 5 5 6 6 6 4 1 3 5 7 10 13 13 10 8 9 10 5 1 2 1 5 8 9 9 9 6 6 6 1 4 2 1 2 5 8 8 6 6 8 10 11 11 12 13 13 15 17 18 19 18 16 16 18 20 20 20 20 21 21 19 16 16 17 16 15 16 17 18 19 19 19 18 16 16 17 17 16 15 15 14 13 14
5 4 4 6 7 7 5 4 1 6 5 2 3 6 13 15 14 9 7 12 12 6 5 9 8 7 7 5 7 7 4 8 8 5 4 5 5 6 9 10 8 5 5 7 8 9 9 10 10 12 15 18 19 19 19 18 18 19 19 19 20 23 22 19 17 17 18 18 19 20 21 24 26 26 26 25 23 21 21 20 18 17 18 17 16 15
2 3 5 7 7 5 4 1 3 5 3 1 2 4 12 13 11 7 8 14 16 11 9 11 11 13 13 11 11 11 9 10 11 9 10 11 10 9 8 9 9 7 6 6 7 8 8 8 9 10 11 13 15 16 19 21 21 23 23 22 23 24 24 23 22 22 23 24 25 27 29 30 30 30 29 28 26 25 25 25 24 24 23 22 20 18
4 4 5 4 4 5 4 2 6 4 0 1 4 4 11 10 8 9 13 15 14 14 14 12 11 14 16 15 14 14 12 10 7 9 12 12 10 9 8 9 9 8 7 7 8 9 10 9 9 10 10 11 12 13 15 17 18 20 22 24 25 26 27 28 28 27 27 28 28 28 30 31 31 30 29 28 26 25 26 27 28 28 27 26 25 24
3 4 5 4 3 4 3 2 5 4 4 4 6 7 9 10 10 13 15 13 14 16 17 13 9 10 14 17 16 15 15 14 12 13 14 12 10 9 9 9 11 11 10 10 9 10 12 12 11 11 11 12 12 12 13 15 17 18 19 22 24 25 27 28 28 27 27 27 27 27 28 29 30 30 30 29 29 28 28 29 29 30 30 30 29 28
3 3 4 4 1 1 3 4 7 6 6 8 10 10 9 10 11 12 12 13 15 16 16 14 11 9 11 15 17 17 18 19 18 17 14 13 12 12 12 13 13 14 14 14 13 13 15 16 15 15 16 16 15 15 15 16 18 19 20 23 24 25 27 28 27 27 28 29 29 29 29 30 30 31 32 32 32 32 32 32 31 31 31 32 32 31
4 4 3 3 3 3 4 7 9 7 6 8 10 10 11 12 14 13 12 12 14 15 15 15 14 11 10 11 12 14 14 15 15 15 13 13 13 15 16 17 16 17 17 18 17 17 18 19 20 20 20 21 21 21 21 21 22 22 23 24 26 27 28 29 29 30 31 31 32 32 32 33 33 34 34 35 35 35 35 35 34 33 33 33 32 32
6 5 4 3 4 6 6 7 8 7 7 8 11 12 12 13 15 15 14 13 13 13 12 11 11 10 8 6 7 9 8 8 9 11 12 13 15 16 18 19 19 20 20 21 21 21 21 22 24 24 25 25 25 25 25 26 26 27 28 29 29 31 32 32 33 33 34 35 35 35 35 35 36 36 37 37 38 38 38 37 36 35 35 34 33 33
4 5 5 4 4 5 5 6 5 3 4 5 8 11 13 14 16 18 16 15 14 12 10 8 8 7 6 6 6 8 8 8 9 11 13 16 17 19 20 21 22 23 24 24 25 24 24 25 26 27 27 27 28 29 29 29 30 30 31 32 33 34 35 36 37 38 38 39 39 39 39 39 39 40 40 40 40 40 40 39 38 38 37 36 34 33
5 6 5 3 3 4 6 7 6 6 5 4 3 4 6 9 12 15 16 14 12 11 9 7 7 7 8 7 7 9 10 11 12 13 16 18 20 21 22 22 22 23 24 25 26 26 26 27 28 29 29 30 30 31 31 31 31 32 33 34 35 36 37 38 40 41 41 42 43 43 43 43 43 43 43 43 43 42 42 41 41 40 39 38 36 34
6 7 3 0 3 6 7 8 8 8 8 7 5 5 4 1 2 4 5 4 4 4 3 2 3 6 7 8 9 10 11 13 13 14 16 19 21 22 22 23 23 24 25 27 28 28 29 29 29 30 30 30 31 31 31 30 30 30 31 31 32 33 35 36 37 39 40 41 42 43 44 45 45 45 45 45 45 44 44 43 43 42 42 41 39 39
5 5 2 1 4 6 8 9 7 6 8 8 6 5 6 4 4 4 4 2 2 2 2 2 2 3 5 8 11 11 12 14 15 15 17 20 22 23 24 24 23 24 24 25 26 26 26 26 27 27 26 26 26 27 27 27 27 27 28 28 29 30 31 32 33 34 36 37 38 39 40 41 41 42 42 42 42 42 43 43 42 44 45 44 42 42
5 5 1 3 6 8 9 7 4 5 8 8 5 4 4 4 3 2 3 3 4 5 5 6 7 7 7 9 12 13 13 15 17 17 17 18 20 22 23 22 20 20 21 22 21 21 21 22 22 23 23 23 23 24 25 25 25 26 27 28 28 29 30 31 32 33 34 35 36 37 38 39 40 39 39 38 38 38 38 39 39 40 42 43 43 44
Wind_Direction
202 213 217 219 223 222 223 227 231 235 240 260 287 273 234 229 237 231 238 213 184 196 211 213 219 223 232 231 221 206 201 212 218 217 218 220 223 231 241 248 253 255 252 247 238 232 231 233 239 245 245 254 280 268 254 237 207 208 203 188 192 196 191 187 183 179 176 176 167 148 141 145 143 132 119 106 98 88 75 66 59 58 55 51 60 81
206 219 225 222 227 228 227 231 238 244 252 264 282 283 246 224 234 228 231 218 184 193 208 206 219 227 226 228 224 213 205 212 219 217 219 226 228 225 232 245 253 251 241 236 235 232 232 240 252 253 251 263 291 267 255 239 211 204 200 190 191 195 191 181 180 179 174 169 163 152 150 154 154 142 119 98 88 78 70 61 54 51 51 52 52 50
211 226 230 227 228 230 232 233 239 244 252 261 266 274 265 232 229 227 226 218 186 188 205 203 216 230 232 230 228 222 212 208 211 215 223 230 229 224 229 241 247 242 236 239 243 238 235 255 261 256 256 262 275 260 246 234 213 202 199 188 186 192 190 178 177 181 176 164 160 163 162 161 155 133 109 95 82 71 65 56 50 45 42 43 39 36
215 230 230 228 228 227 232 233 236 242 243 253 252 250 264 249 230 223 201 190 175 180 205 217 227 235 237 232 230 232 224 210 208 217 225 230 228 223 229 240 236 231 233 240 247 249 254 264 267 265 264 254 263 256 234 222 209 199 192 186 187 192 193 186 181 184 180 164 167 189 179 162 147 129 109 89 76 67 60 51 47 42 40 40 36 35
226 234 226 224 226 222 228 231 234 247 247 249 247 240 251 252 236 225 185 178 187 189 201 223 242 243 236 231 233 234 222 206 210 223 227 228 227 222 229 235 230 228 230 238 252 264 256 260 277 288 301 31 292 268 240 210 202 194 185 186 190 194 197 198 192 188 184 172 185 214 194 156 146 129 103 78 64 54 53 48 45 44 42 40 35 34
236 243 233 220 218 212 220 230 231 239 248 248 244 240 245 255 257 243 200 185 212 229 221 222 240 245 231 229 232 225 213 212 220 229 230 227 224 222 226 231 231 232 232 237 252 242 223 241 314 332 350 21 272 267 253 220 204 197 196 199 200 198 198 200 197 195 192 181 185 214 194 152 143 128 100 63 48 36 39 41 46 50 47 41 33 28
239 239 230 215 208 208 221 232 232 230 239 245 240 235 241 253 264 261 236 210 212 230 231 220 228 241 228 227 228 218 212 218 221 224 227 224 222 218 221 228 230 232 234 228 188 178 189 191 359 313 282 232 241 249 246 232 219 214 212 210 205 202 201 199 197 196 193 179 179 207 192 155 150 149 147 33 45 29 31 42 53 58 49 41 33 24
236 224 212 218 220 225 230 234 231 223 229 238 236 232 232 240 251 257 261 250 226 230 240 223 224 239 237 226 219 216 216 215 214 217 219 217 217 212 215 227 231 229 222 174 160 169 169 182 220 222 208 209 231 236 231 238 241 230 222 211 198 195 198 199 197 191 182 175 185 208 194 169 174 175 184 237 39 19 32 50 66 63 48 40 34 28
227 216 205 217 224 230 235 234 230 223 228 235 240 243 233 230 235 238 250 251 231 233 243 231 224 237 247 229 214 217 219 214 212 215 214 212 221 218 214 225 233 226 189 156 166 176 178 205 204 191 191 182 218 221 207 223 242 231 228 220 204 196 199 199 196 190 182 180 191 199 190 182 187 190 206 225 243 302 35 59 79 58 39 33 29 25
223 224 222 222 222 231 234 230 227 222 228 235 241 253 245 231 228 228 238 241 230 235 241 236 231 244 254 225 210 215 214 211 211 213 209 207 229 237 226 225 231 228 197 175 181 187 188 209 209 198 197 157 161 201 194 196 203 202 214 220 217 214 209 201 197 196 192 190 195 197 190 183 186 201 216 227 237 240 304 78 112 32 18 20 18 16
228 228 229 227 225 230 230 229 230 224 227 233 234 240 242 236 227 225 233 236 231 233 237 239 232 240 258 218 207 217 210 208 211 208 205 204 227 245 244 243 246 237 205 182 191 202 202 216 216 209 206 177 158 187 195 194 192 192 198 209 215 215 212 206 201 199 196 198 206 209 200 184 187 206 217 226 234 236 240 244 255 318 342 355 2 5
232 228 226 228 227 226 227 236 236 224 220 220 220 229 231 228 224 226 230 230 234 232 234 240 224 218 243 229 210 206 188 200 220 207 197 198 214 230 235 242 247 233 208 188 192 204 213 222 224 216 211 197 177 178 190 194 196 197 197 205 211 210 212 211 201 197 199 204 210 212 207 194 194 205 214 223 229 235 239 249 269 296 318 330 344 352
230 230 229 229 229 225 225 233 228 218 216 213 213 224 228 219 215 227 227 220 233 237 231 239 231 219 235 226 203 198 180 196 232 221 206 207 216 227 234 236 237 227 215 206 197 201 212 221 226 221 216 207 193 182 183 192 203 207 203 206 213 215 217 215 202 196 200 209 214 217 212 201 200 205 211 221 227 236 247 261 278 294 308 318 333 343
223 229 229 225 225 223 220 222 216 208 214 219 217 220 225 216 212 226 227 224 235 235 228 231 235 213 200 185 183 195 191 176 185 200 207 219 222 224 233 235 232 224 215 210 203 203 213 220 222 218 214 211 202 190 189 194 203 212 211 209 212 214 210 206 203 201 204 214 222 226 217 204 204 207 208 219 229 240 252 267 280 291 301 313 328 337
220 223 222 217 216 214 214 220 223 212 212 219 223 226 229 224 225 230 229 241 242 244 241 228 224 187 161 153 157 179 187 180 173 169 178 199 209 214 231 238 231 217 210 210 208 208 212 213 213 213 210 208 206 200 201 204 207 213 216 214 212 210 204 200 202 208 215 220 224 229 223 210 208 210 211 219 228 240 252 267 279 289 301 312 326 334
230 233 222 214 213 210 212 221 232 237 225 216 217 227 234 228 229 239 247 273 303 300 279 223 224 237 149 157 175 188 197 201 201 195 185 188 198 209 225 234 230 220 215 218 219 221 222 213 203 205 207 205 203 205 208 211 213 215 219 218 211 206 204 204 204 207 217 222 225 230 227 217 214 214 216 220 228 239 251 266 280 291 301 310 324 341
231 242 225 209 210 211 215 222 225 233 242 224 215 225 232 226 222 224 237 266 280 286 252 193 193 183 143 172 203 221 226 216 211 210 209 203 199 206 217 223 223 217 213 216 221 230 233 221 200 194 201 208 207 209 212 213 216 217 219 220 215 210 212 213 209 209 216 221 224 229 226 218 215 217 218 221 228 239 250 268 284 293 300 308 326 352
233 254 246 213 214 212 212 222 221 224 237 234 222 233 243 234 227 220 191 239 263 260 228 200 190 189 198 199 195 212 227 225 219 214 212 211 204 206 213 213 205 201 200 205 220 232 226 212 198 189 195 208 212 214 216 216 217 215 216 223 226 224 222 218 213 214 222 224 221 223 223 216 215 219 221 224 230 238 249 270 287 293 299 306 321 351
232 249 256 229 227 213 202 220 229 223 228 228 230 251 267 264 241 224 205 178 222 249 239 216 209 206 215 197 172 188 209 211 206 201 193 189 186 181 184 185 184 193 202 201 212 227 207 186 184 181 186 199 206 212 216 218 221 219 218 225 231 231 229 226 218 212 214 219 220 220 221 218 218 221 225 232 238 241 251 268 278 282 289 295 307 340
221 234 242 236 235 213 199 217 230 224 227 229 233 247 250 252 252 240 244 245 227 228 238 230 217 180 36 262 183 185 193 194 195 195 189 188 191 186 182 187 192 194 200 193 185 192 188 175 172 173 181 192 200 208 214 216 221 224 225 229 232 232 233 235 230 219 211 213 220 222 220 217 219 223 228 237 243 245 253 261 262 267 277 279 290 323
212 219 230 234 230 223 215 218 226 229 231 229 229 232 231 231 235 236 241 246 249 251 257 242 224 55 38 57 169 179 189 196 194 186 179 180 184 184 179 182 191 192 189 181 171 169 171 171 172 176 183 191 196 205 213 216 217 222 226 228 228 230 232 235 238 234 225 220 223 226 227 225 225 227 233 240 246 248 250 249 247 256 265 266 277 302
197 203 219 230 226 231 234 226 227 237 239 235 232 231 230 228 227 228 225 233 247 254 253 259 204 49 34 87 136 177 196 198 192 177 163 162 163 161 157 156 164 171 169 164 163 165 167 168 175 179 184 194 200 205 211 215 217 221 224 225 226 229 232 234 237 237 235 234 234 235 240 241 234 235 242 246 246 242 238 236 242 251 254 255 267 287
195 192 213 227 231 239 249 255 260 264 259 249 242 239 240 237 233 235 231 234 251 256 259 263 201 123 122 127 139 175 190 192 195 189 171 163 157 153 157 161 159 154 154 156 157 161 163 164 172 176 182 194 202 207 211 216 222 229 234 233 230 230 231 234 238 239 236 236 237 239 242 241 235 237 244 244 236 228 226 232 240 243 244 247 258 274
207 195 206 221 230 243 255 263 266 283 297 277 260 257 253 249 243 240 240 243 264 274 278 272 250 115 130 144 147 166 178 180 181 182 182 175 166 160 162 165 162 152 150 153 152 153 151 153 161 169 177 185 191 198 201 207 218 228 234 235 231 230 230 229 231 230 222 219 224 228 228 226 226 228 227 221 216 217 224 231 236 240 242 247 254 262
214 208 219 227 226 237 253 260 255 263 282 284 279 277 270 262 250 244 250 253 263 267 249 231 135 176 145 128 159 181 174 170 167 166 175 175 169 167 162 161 162 155 152 151 148 146 144 143 148 152 160 168 171 173 177 189 204 214 223 228 226 223 219 212 207 202 196 199 205 211 215 215 212 210 213 215 212 211 222 233 238 244 247 250 255 259
221 211 218 229 236 235 234 249 251 245 254 294 311 303 295 283 259 240 239 240 247 272 271 282 163 189 175 130 173 196 183 176 174 172 180 182 177 176 167 163 161 155 153 152 148 146 141 138 140 141 146 154 157 161 171 185 195 204 216 219 214 212 208 202 198 192 189 200 208 215 224 224 219 216 221 223 215 212 231 237 238 244 247 249 253 256
220 215 213 219 237 250 237 240 254 244 257 346 335 307 300 304 283 257 246 232 214 238 274 291 192 162 148 129 160 193 177 166 160 170 183 183 182 183 174 167 164 160 160 157 152 149 141 138 140 140 141 148 152 160 178 194 198 204 213 213 204 202 203 204 206 203 202 216 224 223 227 229 226 224 229 233 229 230 241 242 242 247 250 252 256 258
232 236 229 223 239 251 252 245 250 251 253 318 341 312 300 314 309 285 283 272 233 220 240 252 178 147 139 152 162 161 171 167 165 179 185 179 180 180 171 165 164 165 168 167 162 159 153 150 151 147 148 154 156 159 169 182 190 197 203 205 200 200 206 213 224 225 216 216 217 215 221 226 220 215 223 241 243 242 243 244 244 248 251 256 263 266
229 231 228 227 235 236 231 220 230 255 253 243 282 342 334 332 335 346 354 336 279 243 198 179 177 161 157 177 178 167 169 170 177 184 180 180 185 182 171 168 168 171 172 169 169 171 169 164 161 161 166 170 170 170 169 169 175 184 191 196 202 213 223 232 247 248 229 220 220 219 226 228 214 203 204 217 227 234 239 240 240 246 252 256 260 264
216 227 217 213 224 212 197 202 200 249 253 237 238 251 15 25 12 22 38 39 117 163 154 169 175 158 147 161 173 184 188 180 184 188 178 179 181 177 177 174 171 176 178 172 173 179 181 178 175 177 182 187 192 195 193 189 187 191 196 201 213 230 241 246 254 258 247 240 238 235 239 236 217 208 208 209 214 222 229 232 236 246 254 255 256 256
212 235 218 202 217 214 199 202 196 202 229 227 236 241 228 111 65 83 86 87 94 104 126 151 158 146 140 149 165 196 212 205 200 201 197 193 186 182 184 176 168 174 177 174 176 179 181 180 180 184 189 194 199 203 207 210 206 204 209 213 220 231 239 243 246 249 250 249 247 245 245 243 237 235 231 225 224 229 232 234 238 251 260 259 257 256
211 225 209 197 220 225 211 212 207 196 216 230 229 229 224 220 216 164 121 110 108 113 123 130 133 137 153 171 184 201 212 210 206 203 196 193 190 186 184 177 172 169 162 159 163 169 175 176 175 178 181 184 195 204 210 212 209 209 214 215 219 225 229 234 240 249 255 255 256 255 253 255 256 255 257 257 257 260 260 259 258 259 260 260 258 255
207 194 190 207 230 234 220 209 200 192 220 242 228 224 232 235 228 197 163 136 118 117 121 119 127 146 170 189 198 202 202 202 206 202 193 187 184 181 173 166 166 168 170 172 173 176 180 180 179 181 178 170 178 192 197 198 199 206 211 210 214 222 226 230 235 244 254 255 257 262 263 265 266 262 265 271 275 274 273 276 275 265 261 262 259 256
223 213 211 219 240 263 229 174 171 205 223 206 194 213 233 237 225 191 163 147 124 111 112 116 121 136 166 192 192 190 199 203 202 199 195 190 185 181 173 166 167 176 184 188 187 186 187 184 184 189 188 182 182 185 188 192 197 203 209 207 208 217 225 232 235 240 249 251 251 255 258 259 260 261 265 270 273 272 269 271 270 261 258 259 258 258
219 231 239 227 251 296 257 157 157 227 199 156 186 210 233 236 227 208 178 165 158 141 132 130 131 141 176 179 118 110 143 195 200 201 204 199 190 182 173 168 173 185 196 199 197 195 194 192 191 193 195 195 193 192 194 197 197 201 206 205 206 215 221 222 222 227 237 244 247 250 251 249 251 260 269 269 268 266 265 268 264 255 254 255 256 258
198 217 232 223 220 264 215 186 200 79 97 128 171 136 243 248 237 224 208 200 205 209 218 232 210 209 235 246 204 246 339 192 205 209 216 212 197 183 173 170 174 184 195 201 202 200 199 199 197 193 193 196 198 200 203 204 203 206 209 205 199 202 218 223 221 223 230 236 233 229 242 250 251 261 272 269 269 271 267 264 261 259 261 260 257 257
224 218 218 224 226 223 218 222 227 142 94 98 103 103 146 194 220 235 229 226 228 229 242 259 258 249 245 246 259 277 287 287 261 248 247 236 218 209 208 202 193 195 199 200 202 204 206 209 207 198 194 196 201 206 212 217 213 205 203 203 196 188 203 217 217 213 217 225 227 226 242 257 260 267 276 279 284 286 279 271 267 266 263 259 258 259
235 224 209 211 225 230 237 246 235 218 146 133 144 167 181 167 141 155 183 198 232 240 245 254 255 248 245 250 257 267 275 284 303 315 299 281 260 251 251 246 235 235 235 230 232 240 243 240 233 221 212 209 210 212 215 221 220 204 191 193 197 202 213 219 218 217 222 229 234 238 247 257 263 270 277 280 284 284 281 277 274 269 266 267 271 274
233 240 209 213 236 236 240 258 273 35 113 163 189 192 185 172 151 124 116 126 136 331 349 235 226 221 226 239 231 221 256 269 206 97 82 309 313 295 285 276 253 234 240 245 250 257 258 254 248 243 240 236 231 226 219 218 223 215 199 192 200 212 220 223 224 230 237 241 245 250 258 264 268 269 270 271 271 271 274 277 276 273 277 282 286 289
229 242 229 239 242 222 219 254 350 75 100 168 246 209 192 180 164 145 129 131 128 105 73 83 92 109 118 149 177 167 207 239 216 188 213 247 265 282 293 301 305 295 264 254 255 254 251 248 245 243 242 242 242 243 241 240 242 239 227 216 217 223 226 226 230 239 248 252 255 258 260 260 261 261 261 262 264 265 267 271 273 275 280 282 284 286
301 289 259 255 258 256 269 262 111 115 149 120 18 188 184 176 169 164 139 131 133 135 134 129 134 141 143 158 175 174 191 218 223 233 249 262 273 282 294 303 307 309 296 279 275 269 260 252 248 247 248 248 246 245 245 246 247 247 243 238 237 239 242 245 248 250 253 254 254 255 254 254 254 254 254 256 260 263 264 266 269 273 276 277 277 275
341 319 285 272 279 287 289 153 123 109 151 51 50 135 155 149 144 134 125 133 149 149 143 150 168 171 176 189 195 189 190 192 203 234 248 257 268 282 300 305 301 301 296 287 283 279 275 270 263 258 255 256 254 247 242 242 243 244 243 242 243 243 245 248 249 249 249 250 250 251 252 252 251 252 254 256 257 258 260 262 266 270 273 274 274 272
331 332 343 343 307 287 295 136 113 63 46 81 85 104 121 121 124 129 133 153 170 157 146 151 162 167 186 205 208 202 202 203 209 226 243 260 274 284 293 294 293 293 289 285 282 279 279 278 276 272 267 262 259 255 248 245 243 242 242 242 243 242 241 244 247 248 247 246 246 247 247 247 248 250 252 253 253 254 258 261 264 267 269 270 271 271
344 359 20 16 11 355 25 85 109 91 79 96 102 105 113 120 127 139 153 171 178 173 169 174 176 172 189 208 214 213 217 225 231 236 244 258 267 274 279 282 285 285 283 282 281 278 279 280 278 277 276 272 269 265 261 256 251 249 246 244 244 244 242 242 244 244 242 241 241 242 243 244 246 247 249 251 253 255 258 261 264 266 266 267 268 269
34 53 53 40 70 90 97 121 134 139 134 132 138 147 151 144 141 146 157 170 185 193 193 193 195 195 201 217 226 225 226 234 242 244 248 255 259 264 270 273 277 278 277 280 279 277 278 279 278 277 276 275 274 271 268 265 262 259 255 252 251 251 248 246 245 243 242 242 241 241 242 243 244 246 248 251 254 256 259 261 263 263 263 264 266 266
52 42 36 50 73 73 88 123 149 172 179 172 174 178 178 171 162 159 161 173 189 197 202 208 208 205 207 223 240 246 246 247 247 247 251 256 260 264 268 271 274 277 277 279 280 279 279 279 279 279 277 276 276 274 272 270 267 265 263 261 259 258 256 255 252 250 249 249 248 247 247 247 248 249 250 252 255 257 260 261 262 262 262 263 264 265
52 41 44 66 79 73 95 125 142 163 173 177 183 187 191 191 183 179 185 196 206 213 226 241 243 243 244 241 247 260 267 269 267 266 267 268 268 269 271 274 276 278 279 280 281 282 281 280 280 280 280 279 278 277 276 274 272 270 268 266 264 262 262 261 259 258 257 256 256 256 255 255 255 255 255 256 257 258 259 260 261 262 263 264 264 264
60 65 63 68 93 109 129 132 116 102 102 102 124 165 195 204 198 197 205 217 228 237 242 245 250 253 254 253 261 270 272 272 272 274 275 277 276 275 276 277 279 279 280 282 283 283 283 283 282 283 283 283 283 282 281 279 277 275 273 271 269 267 266 265 263 263 262 261 260 259 259 258 257 257 257 257 257 257 258 259 260 261 261 262 262 261
55 61 49 355 101 112 127 127 118 114 114 108 98 99 104 121 167 181 197 221 250 254 240 233 260 266 262 252 250 256 263 265 264 265 269 272 274 275 276 277 278 279 281 282 283 284 284 284 284 285 285 285 285 284 284 283 282 281 279 277 276 274 272 270 269 267 266 264 263 262 260 259 258 258 258 258 257 257 257 257 258 258 258 257 256 257
59 61 39 40 88 115 130 128 130 140 139 137 130 114 109 104 96 102 111 124 183 209 172 152 192 253 266 253 246 247 258 267 267 265 267 269 272 275 277 278 280 281 282 281 282 283 284 284 285 285 285 285 284 284 284 284 284 283 282 281 279 277 275 274 272 271 269 268 266 265 263 262 261 260 259 259 258 258 258 257 256 255 255 254 253 253
69 67 93 127 120 130 129 118 124 158 158 155 150 133 124 111 106 150 183 199 226 248 246 216 208 221 241 255 261 263 266 273 277 275 273 275 278 279 282 286 288 286 284 284 286 287 287 287 288 288 288 288 287 286 286 286 286 286 286 285 283 282 281 279 276 274 272 270 269 267 266 264 263 262 261 260 259 258 257 257 256 255 256 256 253 252
Height
3078 3078 3078 3078 3078 3079 3079 3080 3080 3079 3078 3078 3077 3075 3075 3076 3075 3074 3074 3073 3075 3079 3081 3084 3085 3087 3088 3089 3090 3092 3093 3095 3097 3098 3099 3098 3099 3099 3098 3100 3101 3103 3105 3101 3093 3090 3093 3097 3100 3102 3105 3110 3114 3114 3115 3117 3120 3122 3123 3125 3124 3124 3126 3128 3130 3132 3133 3134 3134 3134 3134 3135 3136 3136 3137 3137 3138 3138 3139 3139 3139 3139 3139 3139 3139 3139
3077 3076 3075 3076 3077 3078 3078 3079 3079 3078 3078 3079 3077 3073 3071 3072 3073 3072 3073 3073 3075 3077 3079 3082 3084 3086 3087 3088 3089 3090 3090 3092 3094 3096 3097 3098 3098 3098 3098 3098 3100 3103 3101 3092 3088 3093 3098 3101 3103 3104 3107 3112 3114 3114 3114 3116 3118 3120 3121 3123 3125 3125 3127 3129 3130 3132 3132 3133 3133 3133 3134 3135 3136 3136 3137 3137 3137 3138 3139 3139 3139 3139 3139 3139 3139 3139
3075 3074 3074 3075 3076 3076 3077 3078 3077 3077 3078 3077 3077 3074 3071 3070 3071 3071 3071 3073 3074 3076 3079 3081 3083 3085 3085 3086 3088 3088 3088 3089 3091 3093 3095 3097 3097 3097 3097 3098 3101 3100 3093 3088 3093 3100 3101 3102 3104 3105 3108 3112 3113 3113 3114 3114 3117 3119 3120 3122 3123 3124 3126 3128 3129 3131 3131 3132 3133 3134 3135 3135 3136 3136 3136 3137 3137 3138 3139 3139 3139 3139 3139 3139 3139 3139
3073 3071 3072 3074 3074 3075 3075 3075 3076 3076 3076 3076 3076 3075 3072 3070 3070 3070 3070 3073 3074 3076 3079 3081 3083 3083 3084 3085 3086 3087 3087 3087 3088 3091 3093 3095 3095 3095 3098 3099 3098 3092 3088 3090 3097 3102 3102 3102 3103 3104 3107 3111 3112 3113 3113 3115 3116 3118 3120 3121 3122 3123 3124 3127 3129 3131 3132 3132 3133 3135 3135 3136 3136 3137 3137 3137 3138 3138 3139 3139 3140 3140 3139 3139 3139 3139
3070 3069 3070 3072 3072 3073 3074 3074 3075 3075 3075 3075 3075 3074 3073 3071 3071 3070 3071 3073 3076 3077 3079 3082 3083 3081 3081 3083 3083 3085 3085 3085 3087 3089 3091 3093 3093 3095 3098 3094 3089 3086 3088 3094 3099 3102 3102 3101 3103 3104 3108 3111 3112 3112 3113 3115 3116 3117 3119 3119 3121 3123 3124 3126 3129 3130 3132 3132 3134 3136 3136 3136 3137 3137 3137 3138 3138 3139 3140 3140 3140 3140 3140 3140 3139 3139
3069 3069 3070 3070 3070 3072 3073 3074 3075 3075 3075 3074 3073 3073 3073 3071 3071 3072 3072 3074 3076 3077 3078 3082 3082 3078 3079 3081 3081 3082 3082 3083 3086 3087 3090 3091 3091 3095 3094 3086 3085 3088 3092 3098 3102 3102 3099 3100 3103 3105 3108 3111 3111 3111 3112 3114 3116 3117 3118 3119 3120 3122 3124 3126 3128 3130 3132 3132 3134 3136 3136 3136 3137 3137 3138 3138 3139 3139 3140 3140 3141 3141 3141 3141 3140 3139
3067 3068 3069 3069 3069 3071 3072 3073 3073 3074 3074 3073 3072 3073 3073 3072 3071 3072 3072 3073 3075 3076 3078 3080 3079 3077 3077 3077 3078 3080 3081 3082 3085 3086 3088 3090 3091 3094 3087 3080 3085 3090 3094 3100 3102 3100 3099 3101 3103 3104 3108 3110 3109 3110 3111 3113 3115 3116 3117 3118 3119 3121 3123 3126 3127 3128 3131 3132 3134 3135 3136 3136 3136 3137 3138 3138 3139 3140 3140 3141 3141 3141 3141 3141 3140 3139
3066 3067 3068 3068 3069 3070 3070 3071 3071 3072 3072 3071 3070 3072 3072 3072 3072 3072 3072 3072 3073 3076 3077 3078 3078 3077 3074 3073 3075 3078 3079 3081 3083 3085 3086 3089 3091 3087 3078 3077 3085 3091 3095 3101 3100 3098 3099 3100 3102 3103 3106 3108 3108 3109 3111 3113 3113 3114 3116 3118 3119 3121 3123 3124 3125 3127 3130 3131 3133 3135 3135 3135 3136 3137 3138 3139 3139 3140 3141 3141 3141 3141 3141 3141 3141 3140
3064 3065 3066 3067 3068 3068 3068 3069 3069 3070 3070 3069 3070 3070 3070 3071 3072 3072 3072 3072 3073 3075 3075 3075 3077 3075 3072 3072 3074 3076 3077 3078 3081 3082 3084 3088 3084 3075 3074 3080 3088 3093 3097 3100 3099 3097 3098 3098 3099 3101 3104 3106 3107 3109 3111 3112 3113 3115 3116 3118 3119 3121 3121 3122 3123 3126 3128 3129 3131 3133 3134 3135 3136 3137 3138 3139 3140 3140 3141 3141 3141 3141 3140 3141 3140 3140
3063 3064 3065 3066 3066 3066 3066 3067 3068 3069 3068 3068 3069 3069 3069 3069 3070 3072 3072 3072 3073 3074 3073 3074 3075 3074 3071 3071 3072 3074 3074 3076 3079 3080 3083 3087 3079 3071 3078 3085 3089 3094 3096 3098 3098 3096 3097 3097 3097 3099 3103 3106 3106 3108 3109 3110 3112 3114 3115 3117 3118 3119 3120 3122 3123 3125 3127 3128 3130 3131 3132 3133 3135 3136 3137 3139 3139 3140 3140 3141 3140 3140 3140 3140 3140 3140
3062 3063 3063 3063 3064 3065 3065 3066 3066 3067 3067 3068 3069 3069 3069 3069 3069 3070 3070 3071 3073 3072 3072 3072 3074 3074 3072 3069 3070 3072 3073 3075 3078 3078 3081 3086 3079 3074 3080 3085 3089 3093 3093 3096 3096 3094 3096 3097 3096 3098 3101 3105 3106 3107 3108 3109 3111 3113 3114 3115 3116 3117 3119 3121 3123 3125 3127 3129 3130 3130 3131 3132 3134 3136 3137 3138 3139 3139 3140 3140 3140 3140 3140 3139 3139 3139
3061 3061 3061 3062 3063 3063 3064 3065 3064 3065 3066 3067 3068 3068 3068 3067 3067 3068 3068 3070 3071 3069 3070 3070 3071 3073 3072 3069 3069 3070 3072 3075 3077 3077 3080 3083 3079 3077 3081 3084 3088 3091 3092 3094 3094 3094 3096 3096 3096 3097 3099 3103 3105 3105 3107 3108 3110 3111 3113 3114 3114 3116 3118 3120 3122 3124 3125 3127 3128 3129 3131 3132 3133 3135 3136 3137 3138 3138 3138 3139 3139 3139 3139 3139 3139 3139
3058 3059 3060 3061 3061 3061 3063 3064 3063 3064 3065 3065 3066 3067 3066 3065 3067 3067 3066 3067 3067 3066 3068 3068 3068 3070 3070 3069 3068 3069 3072 3075 3076 3077 3080 3081 3078 3077 3080 3084 3086 3089 3091 3092 3092 3093 3094 3094 3094 3095 3097 3100 3102 3104 3105 3107 3108 3110 3111 3112 3114 3115 3117 3119 3121 3123 3124 3125 3126 3128 3130 3131 3133 3134 3135 3136 3137 3137 3137 3138 3138 3138 3138 3138 3138 3139
3056 3057 3058 3059 3059 3059 3061 3061 3061 3062 3063 3063 3064 3064 3064 3063 3067 3068 3065 3065 3065 3064 3065 3066 3066 3067 3069 3069 3069 3070 3073 3075 3074 3075 3078 3079 3079 3077 3078 3082 3085 3087 3089 3090 3090 3092 3093 3093 3094 3093 3095 3097 3100 3102 3104 3105 3107 3108 3109 3110 3112 3114 3116 3118 3120 3123 3124 3124 3125 3127 3128 3131 3132 3133 3134 3135 3136 3136 3136 3137 3137 3137 3137 3138 3138 3138
3053 3053 3054 3056 3057 3057 3058 3058 3059 3059 3061 3062 3062 3063 3062 3062 3065 3066 3064 3064 3064 3062 3062 3064 3065 3066 3068 3070 3070 3070 3072 3073 3073 3073 3075 3076 3077 3077 3077 3080 3083 3085 3086 3087 3088 3090 3091 3092 3092 3093 3094 3095 3098 3100 3101 3103 3105 3106 3107 3108 3110 3112 3114 3117 3120 3122 3124 3124 3124 3126 3128 3130 3131 3132 3133 3134 3135 3135 3135 3136 3136 3136 3137 3137 3138 3138
3050 3050 3051 3053 3054 3056 3056 3057 3057 3058 3058 3059 3061 3061 3060 3061 3063 3064 3064 3063 3064 3064 3063 3063 3065 3065 3067 3069 3070 3070 3070 3072 3072 3072 3073 3074 3075 3077 3079 3080 3083 3084 3085 3086 3088 3090 3090 3090 3091 3092 3093 3095 3097 3098 3099 3101 3103 3104 3105 3106 3107 3109 3112 3115 3118 3120 3121 3122 3122 3124 3126 3128 3130 3131 3132 3133 3133 3134 3134 3135 3135 3136 3136 3136 3137 3137
3049 3049 3049 3051 3052 3054 3055 3056 3057 3057 3057 3058 3059 3059 3059 3060 3062 3063 3063 3063 3064 3066 3064 3063 3066 3067 3067 3067 3068 3069 3069 3070 3071 3071 3072 3074 3076 3078 3080 3081 3083 3084 3085 3086 3088 3089 3090 3092 3092 3091 3093 3095 3096 3097 3098 3099 3100 3101 3103 3103 3104 3106 3109 3111 3113 3115 3117 3118 3120 3122 3124 3126 3128 3129 3130 3131 3132 3132 3133 3134 3135 3135 3136 3136 3136 3137
3049 3048 3048 3049 3050 3052 3054 3055 3056 3056 3057 3057 3058 3057 3058 3060 3060 3061 3063 3064 3066 3065 3062 3061 3064 3066 3066 3065 3065 3066 3067 3068 3070 3071 3072 3074 3076 3078 3079 3080 3082 3082 3083 3085 3088 3090 3092 3094 3092 3089 3092 3094 3095 3097 3097 3097 3096 3097 3099 3100 3100 3103 3105 3105 3109 3112 3114 3115 3117 3119 3121 3123 3125 3127 3128 3129 3130 3130 3131 3133 3134 3135 3135 3135 3136 3137
3048 3048 3048 3049 3049 3050 3053 3054 3054 3055 3056 3057 3057 3057 3058 3060 3060 3060 3061 3064 3067 3066 3061 3059 3060 3062 3063 3063 3063 3063 3064 3066 3069 3070 3072 3074 3076 3078 3080 3080 3081 3081 3083 3086 3089 3091 3091 3091 3090 3089 3091 3093 3094 3095 3096 3096 3095 3096 3097 3097 3098 3100 3100 3102 3105 3109 3111 3114 3115 3117 3119 3121 3123 3125 3126 3127 3128 3128 3130 3131 3133 3134 3134 3135 3136 3136
3048 3048 3049 3049 3049 3049 3051 3052 3052 3053 3054 3056 3057 3057 3058 3060 3060 3059 3059 3061 3063 3063 3061 3058 3057 3060 3063 3063 3064 3063 3063 3065 3068 3069 3071 3075 3077 3079 3081 3082 3082 3083 3085 3087 3089 3089 3089 3088 3088 3089 3090 3092 3093 3094 3094 3095 3095 3095 3096 3096 3097 3098 3098 3100 3102 3105 3109 3112 3114 3115 3117 3119 3121 3123 3124 3125 3126 3127 3129 3130 3132 3133 3134 3135 3135 3136
3047 3047 3048 3049 3049 3049 3049 3051 3052 3053 3053 3054 3055 3056 3056 3058 3059 3059 3059 3060 3059 3059 3060 3058 3058 3062 3064 3064 3064 3064 3063 3065 3067 3068 3070 3073 3076 3078 3081 3082 3083 3083 3085 3087 3088 3088 3088 3087 3087 3088 3089 3090 3091 3092 3093 3093 3094 3094 3095 3096 3098 3099 3099 3101 3102 3104 3107 3110 3112 3114 3115 3117 3119 3120 3121 3124 3125 3126 3128 3129 3131 3132 3134 3134 3135 3136
3045 3045 3047 3048 3048 3048 3049 3051 3052 3053 3053 3053 3053 3054 3055 3056 3057 3058 3058 3059 3059 3058 3058 3059 3061 3064 3065 3064 3064 3065 3065 3067 3068 3069 3071 3072 3074 3076 3079 3080 3081 3082 3084 3085 3086 3087 3087 3087 3087 3087 3087 3088 3089 3090 3090 3091 3092 3093 3094 3096 3098 3099 3100 3101 3102 3104 3105 3107 3110 3111 3113 3115 3117 3118 3120 3122 3123 3125 3127 3128 3130 3132 3133 3134 3134 3135
3042 3043 3046 3047 3048 3049 3049 3049 3050 3050 3052 3052 3052 3052 3054 3054 3055 3056 3057 3059 3060 3058 3057 3059 3062 3064 3064 3064 3064 3065 3066 3067 3069 3070 3071 3072 3073 3075 3077 3078 3079 3081 3083 3084 3085 3085 3085 3086 3085 3086 3086 3087 3087 3088 3089 3090 3091 3092 3093 3095 3097 3098 3100 3101 3102 3103 3104 3106 3107 3108 3109 3111 3113 3116 3118 3120 3122 3124 3126 3127 3129 3131 3132 3133 3133 3134
3041 3043 3045 3046 3048 3049 3048 3048 3049 3049 3050 3050 3050 3052 3053 3053 3053 3055 3056 3059 3059 3058 3058 3060 3062 3065 3065 3065 3066 3066 3066 3067 3070 3071 3072 3073 3074 3076 3077 3078 3079 3080 3081 3082 3083 3084 3084 3085 3085 3085 3085 3085 3086 3087 3088 3089 3090 3092 3093 3095 3096 3098 3100 3101 3102 3103 3104 3105 3105 3106 3107 3108 3111 3114 3116 3118 3120 3123 3125 3127 3129 3130 3131 3131 3132 3133
3041 3043 3044 3046 3047 3049 3050 3050 3049 3050 3049 3049 3049 3051 3052 3053 3054 3054 3055 3057 3059 3058 3059 3061 3063 3065 3065 3065 3066 3066 3066 3067 3069 3071 3072 3073 3074 3075 3076 3077 3078 3079 3080 3081 3082 3083 3084 3084 3085 3085 3085 3085 3086 3086 3087 3089 3090 3092 3093 3094 3096 3098 3099 3101 3102 3102 3103 3104 3105 3106 3107 3107 3111 3114 3114 3115 3118 3122 3124 3126 3128 3129 3129 3130 3131 3131
3042 3043 3044 3045 3046 3048 3051 3052 3050 3050 3050 3050 3050 3049 3049 3051 3052 3053 3054 3055 3057 3057 3058 3061 3063 3064 3065 3065 3064 3065 3066 3068 3070 3072 3073 3075 3076 3076 3076 3076 3077 3079 3080 3081 3082 3083 3084 3084 3085 3086 3086 3086 3086 3086 3088 3089 3090 3092 3093 3095 3096 3098 3099 3101 3101 3102 3103 3104 3105 3106 3106 3106 3110 3112 3112 3115 3119 3123 3124 3125 3126 3127 3127 3128 3129 3129
3043 3043 3044 3046 3046 3047 3049 3051 3050 3050 3050 3050 3050 3049 3049 3048 3049 3051 3053 3053 3054 3056 3058 3061 3062 3063 3064 3064 3064 3064 3066 3067 3069 3072 3074 3074 3075 3074 3074 3074 3076 3078 3080 3081 3082 3083 3084 3085 3086 3087 3087 3087 3087 3088 3088 3089 3091 3092 3094 3095 3096 3098 3099 3100 3101 3102 3104 3104 3104 3105 3104 3105 3109 3111 3112 3115 3119 3121 3121 3121 3123 3124 3125 3126 3126 3127
3042 3043 3044 3045 3046 3047 3048 3050 3050 3050 3051 3051 3050 3050 3050 3049 3048 3049 3051 3052 3053 3055 3058 3060 3061 3062 3063 3064 3064 3065 3066 3067 3069 3071 3073 3073 3073 3073 3074 3074 3075 3078 3080 3081 3082 3083 3083 3084 3086 3087 3088 3088 3089 3090 3090 3091 3092 3093 3094 3096 3097 3098 3099 3100 3101 3103 3104 3104 3103 3104 3104 3104 3108 3111 3113 3114 3116 3117 3118 3118 3119 3121 3123 3124 3125 3126
3042 3043 3043 3044 3045 3046 3048 3048 3049 3049 3050 3050 3051 3051 3052 3051 3051 3050 3050 3051 3053 3054 3057 3059 3060 3061 3063 3064 3064 3065 3066 3067 3068 3070 3072 3073 3074 3076 3077 3076 3077 3079 3081 3082 3083 3083 3084 3085 3085 3086 3088 3089 3090 3090 3091 3092 3093 3094 3095 3096 3097 3097 3098 3100 3101 3102 3104 3104 3103 3105 3104 3104 3107 3110 3111 3113 3115 3116 3115 3116 3117 3119 3120 3121 3123 3124
3041 3041 3042 3043 3045 3046 3046 3047 3048 3049 3049 3050 3050 3051 3053 3053 3052 3051 3050 3051 3054 3055 3056 3058 3059 3061 3063 3064 3063 3064 3065 3066 3066 3068 3070 3072 3073 3075 3077 3078 3078 3080 3081 3082 3082 3083 3084 3084 3085 3086 3088 3089 3090 3091 3092 3092 3093 3094 3095 3096 3097 3097 3097 3099 3099 3099 3101 3101 3102 3103 3103 3102 3103 3106 3108 3110 3112 3114 3115 3116 3117 3118 3119 3120 3121 3121
3040 3041 3041 3043 3044 3045 3046 3047 3047 3048 3049 3049 3050 3051 3053 3054 3054 3054 3053 3054 3057 3058 3057 3057 3057 3059 3062 3063 3062 3061 3062 3063 3064 3066 3068 3070 3071 3073 3075 3077 3078 3079 3080 3082 3082 3083 3084 3084 3085 3086 3087 3088 3089 3090 3091 3092 3093 3094 3096 3096 3097 3097 3097 3097 3097 3097 3097 3098 3099 3100 3099 3099 3100 3102 3104 3106 3108 3110 3112 3114 3115 3115 3117 3118 3119 3119
3039 3040 3042 3043 3043 3044 3045 3046 3047 3048 3049 3050 3050 3051 3052 3053 3055 3056 3056 3056 3057 3059 3060 3059 3057 3058 3060 3060 3059 3059 3060 3062 3064 3066 3068 3069 3071 3072 3074 3074 3075 3076 3077 3079 3079 3080 3080 3081 3082 3083 3085 3087 3089 3090 3091 3092 3093 3094 3095 3095 3096 3096 3097 3097 3097 3096 3096 3096 3097 3098 3098 3099 3101 3102 3103 3104 3105 3106 3108 3109 3111 3113 3115 3117 3117 3118
3039 3040 3042 3043 3043 3043 3044 3045 3046 3047 3048 3048 3049 3050 3051 3052 3054 3055 3056 3056 3057 3059 3061 3061 3060 3059 3059 3059 3060 3060 3061 3063 3064 3066 3067 3069 3070 3071 3071 3071 3071 3071 3071 3071 3073 3074 3076 3077 3078 3079 3081 3084 3086 3088 3089 3090 3091 3092 3093 3094 3095 3096 3097 3097 3097 3096 3097 3097 3097 3098 3099 3100 3102 3103 3104 3105 3105 3106 3108 3108 3110 3113 3114 3115 3116 3116
3040 3040 3041 3042 3042 3043 3043 3043 3045 3047 3047 3047 3048 3049 3050 3051 3053 3054 3055 3056 3056 3058 3060 3061 3061 3060 3060 3060 3061 3062 3062 3064 3065 3066 3067 3068 3069 3069 3069 3069 3069 3069 3069 3069 3070 3072 3074 3076 3077 3078 3078 3079 3081 3084 3086 3088 3089 3091 3092 3093 3095 3095 3096 3096 3097 3097 3097 3097 3097 3099 3100 3100 3101 3103 3104 3105 3106 3107 3108 3109 3110 3111 3112 3112 3113 3114
3039 3040 3041 3041 3042 3043 3043 3043 3045 3046 3046 3046 3047 3048 3049 3050 3052 3053 3054 3055 3056 3057 3059 3061 3061 3061 3060 3061 3062 3063 3063 3064 3065 3066 3067 3068 3068 3067 3067 3068 3068 3069 3070 3071 3072 3073 3074 3074 3075 3077 3077 3077 3078 3080 3082 3085 3086 3088 3090 3091 3093 3094 3095 3095 3095 3095 3095 3096 3097 3098 3099 3100 3101 3102 3103 3104 3104 3106 3107 3107 3108 3109 3110 3110 3111 3112
3038 3039 3040 3041 3042 3043 3044 3045 3046 3046 3045 3046 3047 3048 3048 3049 3050 3052 3054 3054 3055 3056 3058 3060 3061 3062 3062 3062 3063 3063 3064 3065 3065 3066 3067 3069 3069 3068 3068 3068 3067 3068 3069 3070 3071 3072 3072 3073 3074 3075 3077 3078 3079 3080 3081 3083 3084 3085 3087 3088 3090 3092 3093 3093 3094 3095 3095 3096 3096 3097 3098 3099 3100 3100 3101 3101 3102 3103 3104 3105 3106 3107 3108 3108 3109 3109
3037 3037 3039 3040 3041 3042 3043 3044 3046 3046 3046 3047 3047 3048 3048 3049 3049 3051 3052 3053 3054 3056 3056 3058 3059 3061 3061 3062 3062 3062 3063 3064 3064 3065 3066 3068 3068 3069 3070 3070 3070 3070 3070 3070 3071 3072 3072 3074 3074 3075 3076 3077 3078 3080 3081 3082 3083 3084 3086 3087 3088 3090 3090 3091 3092 3093 3094 3094 3095 3097 3097 3098 3099 3099 3100 3099 3099 3100 3101 3102 3104 3104 3105 3106 3107 3107
3036 3036 3037 3039 3040 3040 3042 3043 3044 3044 3046 3046 3046 3046 3047 3048 3049 3050 3051 3052 3053 3055 3056 3056 3057 3058 3060 3061 3061 3062 3062 3062 3062 3063 3064 3065 3066 3067 3068 3070 3071 3072 3073 3073 3073 3074 3074 3075 3075 3075 3075 3076 3077 3078 3080 3081 3082 3082 3084 3086 3087 3087 3087 3087 3089 3090 3091 3093 3094 3095 3096 3096 3097 3098 3099 3099 3099 3098 3098 3099 3101 3101 3102 3103 3104 3105
3035 3035 3036 3038 3039 3040 3042 3043 3043 3043 3045 3046 3046 3046 3047 3048 3049 3050 3052 3053 3054 3054 3054 3055 3056 3057 3059 3060 3061 3061 3062 3062 3063 3063 3063 3064 3064 3065 3065 3067 3069 3071 3072 3073 3074 3074 3074 3074 3074 3075 3076 3076 3077 3078 3079 3081 3082 3082 3082 3083 3084 3084 3085 3086 3087 3089 3090 3092 3093 3094 3094 3095 3096 3096 3097 3098 3098 3098 3097 3097 3098 3098 3099 3100 3101 3101
3035 3035 3036 3037 3039 3039 3041 3043 3044 3045 3046 3046 3046 3046 3047 3048 3049 3050 3052 3055 3056 3056 3056 3056 3057 3058 3059 3060 3061 3061 3062 3061 3062 3063 3063 3063 3064 3064 3064 3065 3067 3068 3069 3070 3071 3072 3073 3073 3073 3074 3075 3077 3078 3079 3080 3081 3083 3084 3084 3084 3083 3083 3084 3085 3087 3088 3089 3090 3091 3092 3093 3093 3094 3095 3095 3096 3096 3097 3096 3096 3096 3097 3097 3097 3099 3099
3035 3035 3035 3037 3038 3038 3040 3042 3044 3046 3047 3046 3046 3046 3047 3048 3050 3051 3053 3055 3056 3058 3059 3059 3058 3058 3059 3059 3060 3061 3061 3061 3061 3062 3062 3062 3063 3063 3064 3065 3066 3067 3068 3068 3069 3070 3071 3072 3073 3074 3075 3076 3077 3078 3079 3080 3081 3082 3082 3083 3083 3084 3084 3085 3086 3087 3087 3088 3089 3090 3090 3091 3092 3092 3093 3093 3094 3094 3094 3094 3094 3095 3095 3095 3097 3098
3035 3036 3036 3036 3037 3038 3039 3041 3043 3045 3046 3046 3046 3047 3047 3049 3051 3052 3054 3055 3055 3057 3059 3059 3058 3058 3059 3059 3060 3061 3061 3061 3061 3061 3061 3062 3062 3063 3064 3065 3065 3066 3067 3068 3069 3069 3070 3072 3073 3074 3075 3076 3076 3077 3077 3078 3078 3079 3080 3080 3081 3081 3082 3083 3083 3084 3085 3085 3086 3087 3088 3089 3089 3090 3090 3091 3091 3092 3092 3091 3092 3092 3092 3093 3094 3096
3036 3036 3037 3037 3037 3038 3039 3041 3043 3045 3046 3046 3046 3047 3048 3049 3051 3053 3054 3054 3054 3056 3057 3057 3057 3058 3058 3058 3059 3060 3060 3060 3060 3060 3060 3062 3062 3063 3063 3064 3065 3066 3066 3067 3068 3069 3069 3070 3071 3072 3073 3074 3075 3076 3076 3077 3077 3077 3078 3078 3078 3079 3080 3080 3080 3081 3082 3083 3084 3085 3085 3085 3086 3087 3087 3087 3088 3089 3089 3089 3089 3089 3089 3090 3091 3092
3036 3037 3038 3038 3038 3039 3040 3042 3044 3046 3046 3046 3047 3048 3048 3049 3051 3053 3053 3053 3054 3055 3055 3055 3055 3056 3057 3057 3058 3059 3059 3059 3059 3059 3061 3062 3062 3062 3063 3064 3064 3065 3065 3066 3067 3068 3068 3068 3069 3070 3071 3072 3073 3074 3075 3075 3075 3076 3076 3076 3076 3076 3077 3077 3078 3078 3079 3080 3080 3081 3081 3082 3082 3083 3083 3084 3084 3085 3085 3085 3085 3086 3086 3086 3087 3088
3037 3038 3038 3038 3038 3039 3041 3042 3044 3045 3045 3046 3046 3047 3048 3049 3050 3051 3051 3051 3052 3053 3053 3054 3055 3055 3055 3056 3056 3057 3058 3058 3059 3059 3060 3061 3062 3062 3063 3063 3064 3064 3064 3064 3065 3066 3066 3066 3067 3068 3068 3069 3070 3071 3071 3072 3072 3073 3073 3073 3073 3074 3074 3074 3075 3075 3076 3076 3077 3077 3078 3078 3078 3079 3079 3080 3080 3081 3081 3081 3082 3082 3082 3083 3083 3084
3039 3039 3039 3039 3039 3040 3041 3043 3043 3044 3045 3046 3046 3046 3047 3048 3049 3050 3050 3050 3050 3051 3052 3053 3053 3054 3055 3055 3055 3056 3057 3058 3058 3059 3059 3060 3061 3061 3062 3062 3062 3062 3062 3062 3063 3064 3064 3064 3064 3064 3065 3065 3066 3066 3067 3068 3068 3069 3069 3069 3070 3070 3070 3071 3071 3071 3072 3072 3072 3073 3073 3073 3074 3074 3075 3075 3076 3076 3077 3077 3077 3078 3078 3078 3079 3079
3040 3040 3040 3040 3041 3042 3043 3043 3043 3044 3045 3045 3046 3047 3047 3048 3049 3049 3049 3049 3049 3050 3051 3051 3052 3053 3053 3054 3054 3054 3056 3057 3057 3058 3058 3059 3059 3059 3059 3060 3060 3060 3060 3060 3060 3060 3061 3061 3060 3060 3060 3061 3061 3061 3062 3062 3063 3063 3064 3064 3064 3065 3065 3065 3066 3066 3067 3067 3067 3067 3068 3068 3069 3069 3069 3070 3070 3071 3071 3072 3072 3073 3073 3074 3074 3075
3041 3041 3041 3041 3042 3042 3043 3043 3044 3044 3045 3045 3046 3046 3047 3047 3048 3049 3049 3049 3049 3050 3050 3051 3051 3051 3052 3052 3053 3053 3054 3055 3056 3057 3056 3056 3056 3056 3057 3057 3057 3057 3057 3057 3056 3056 3057 3057 3056 3056 3056 3056 3056 3056 3056 3057 3057 3057 3057 3058 3058 3058 3059 3059 3059 3059 3060 3060 3061 3061 3061 3062 3062 3062 3063 3063 3064 3065 3065 3066 3067 3067 3068 3069 3069 3070
3042 3042 3042 3042 3042 3042 3043 3044 3045 3046 3046 3047 3047 3047 3047 3047 3047 3048 3049 3049 3049 3049 3049 3050 3050 3051 3051 3052 3052 3053 3053 3054 3055 3055 3055 3054 3054 3053 3054 3054 3054 3054 3054 3054 3053 3053 3053 3052 3052 3052 3052 3052 3051 3051 3051 3051 3051 3051 3051 3052 3052 3052 3052 3052 3052 3052 3052 3053 3053 3053 3054 3054 3055 3055 3055 3056 3057 3058 3058 3060 3061 3061 3062 3063 3064 3064
3042 3042 3042 3042 3043 3043 3044 3045 3046 3046 3047 3047 3047 3047 3048 3048 3048 3049 3049 3049 3049 3048 3049 3049 3050 3050 3050 3050 3051 3052 3052 3051 3052 3053 3053 3052 3051 3051 3051 3051 3051 3051 3051 3050 3050 3050 3049 3049 3049 3048 3048 3048 3048 3047 3047 3047 3047 3047 3046 3046 3046 3046 3046 3046 3046 3045 3045 3045 3045 3045 3046 3046 3046 3047 3048 3049 3049 3050 3051 3052 3054 3054 3054 3056 3058 3058
3042 3042 3042 3042 3043 3044 3045 3045 3046 3046 3046 3046 3046 3047 3048 3048 3049 3049 3049 3048 3048 3048 3048 3048 3049 3049 3049 3048 3048 3049 3049 3049 3049 3049 3050 3049 3048 3047 3047 3048 3048 3047 3046 3046 3046 3046 3046 3045 3045 3045 3044 3044 3044 3043 3043 3043 3043 3042 3042 3041 3041 3040 3040 3040 3040 3039 3039 3039 3039 3038 3038 3038 3039 3039 3041 3042 3043 3043 3044 3045 3046 3047 3048 3049 3051 3052